TimeCDT,TemperatureF,Dew PointF,Humidity,Sea Level PressureIn,VisibilityMPH,Wind Direction,Wind SpeedMPH,Gust SpeedMPH,PrecipitationIn,Events,Conditions,WindDirDegrees,DateUTC
12:52 AM,37.9,36.0,93,29.80,6.0,NNW,5.8,-,N/A,,Overcast,340,2013-03-18 05:52:00
1:03 AM,37.4,35.6,93,29.80,5.0,North,6.9,-,N/A,,Overcast,350,2013-03-18 06:03:00
1:52 AM,37.9,36.0,93,29.79,4.0,North,3.5,-,N/A,,Overcast,10,2013-03-18 06:52:00
2:06 AM,37.4,35.6,93,29.78,2.0,NE,3.5,-,N/A,,Overcast,40,2013-03-18 07:06:00
2:17 AM,37.4,35.6,93,29.78,1.8,Calm,Calm,-,N/A,,Overcast,0,2013-03-18 07:17:00
2:39 AM,37.4,35.6,93,29.77,2.0,Calm,Calm,-,0.00,,Overcast,0,2013-03-18 07:39:00
2:52 AM,37.9,35.1,89,29.77,1.5,Calm,Calm,-,0.00,,Overcast,0,2013-03-18 07:52:00
3:07 AM,37.4,35.6,93,29.79,2.0,Calm,Calm,-,N/A,,Overcast,0,2013-03-18 08:07:00
3:27 AM,37.4,35.6,93,29.79,1.2,NNW,3.5,-,N/A,,Overcast,340,2013-03-18 08:27:00
3:40 AM,37.4,35.6,93,29.79,3.0,NNW,6.9,-,N/A,,Overcast,330,2013-03-18 08:40:00
3:52 AM,37.9,36.0,93,29.80,5.0,NNW,10.4,-,N/A,,Overcast,330,2013-03-18 08:52:00
4:52 AM,37.9,36.0,93,29.81,7.0,NW,10.4,-,N/A,,Overcast,320,2013-03-18 09:52:00
5:13 AM,39.2,35.6,87,29.83,7.0,WNW,5.8,-,N/A,,Overcast,300,2013-03-18 10:13:00
5:52 AM,39.0,36.0,89,29.85,8.0,NNW,11.5,-,N/A,,Overcast,330,2013-03-18 10:52:00
6:11 AM,39.2,35.6,87,29.86,8.0,NW,10.4,-,N/A,,Overcast,320,2013-03-18 11:11:00
6:52 AM,37.9,35.1,89,29.88,8.0,NW,9.2,-,N/A,,Mostly Cloudy,320,2013-03-18 11:52:00
7:11 AM,37.4,33.8,87,29.89,7.0,NNW,9.2,-,N/A,,Scattered Clouds,330,2013-03-18 12:11:00
7:52 AM,37.0,33.1,86,29.92,6.0,NNW,12.7,-,N/A,,Partly Cloudy,330,2013-03-18 12:52:00
8:52 AM,39.9,30.9,70,29.93,10.0,NNW,11.5,-,N/A,,Clear,340,2013-03-18 13:52:00
9:52 AM,43.0,26.1,51,29.96,10.0,North,19.6,28.8,N/A,,Clear,360,2013-03-18 14:52:00
10:52 AM,46.0,26.1,46,29.97,10.0,North,18.4,-,N/A,,Clear,360,2013-03-18 15:52:00
11:52 AM,50.0,26.1,39,29.97,10.0,North,9.2,-,N/A,,Clear,360,2013-03-18 16:52:00
12:52 PM,53.1,23.0,31,29.97,10.0,NNW,18.4,28.8,N/A,,Clear,330,2013-03-18 17:52:00
1:52 PM,55.0,21.9,28,29.97,10.0,NW,19.6,25.3,N/A,,Clear,320,2013-03-18 18:52:00
2:52 PM,57.0,21.0,25,29.95,10.0,NNW,15.0,26.5,N/A,,Clear,330,2013-03-18 19:52:00
3:52 PM,57.0,15.1,19,29.95,10.0,NW,16.1,24.2,N/A,,Clear,310,2013-03-18 20:52:00
4:52 PM,57.9,15.1,19,29.95,10.0,NW,13.8,29.9,N/A,,Clear,320,2013-03-18 21:52:00
5:52 PM,57.0,17.1,21,29.94,10.0,NW,9.2,17.3,N/A,,Partly Cloudy,320,2013-03-18 22:52:00
6:52 PM,55.9,16.0,21,29.95,10.0,Calm,Calm,-,N/A,,Clear,0,2013-03-18 23:52:00
7:52 PM,50.0,17.1,27,29.96,10.0,NNE,4.6,-,N/A,,Clear,30,2013-03-19 00:52:00
8:52 PM,45.0,21.9,40,29.99,10.0,NE,5.8,-,N/A,,Clear,50,2013-03-19 01:52:00
9:52 PM,43.0,21.9,43,30.02,10.0,ENE,8.1,-,N/A,,Clear,60,2013-03-19 02:52:00
10:52 PM,39.0,23.0,53,30.02,10.0,ENE,8.1,-,N/A,,Clear,70,2013-03-19 03:52:00